GW3758 Weather Reports


time (UTC)temp
C
wind
direction
speed
KPH
gust
KPH
rain 1hr
cm
rain 24hr
cm
rain mn
cm
humidity
%
barometer
mb
20260507000602 7 194 0.0 0.0 0.00 1.75 1.75 96 1012.6
20260507000057 7 306 0.0 1.6 0.00 1.75 1.75 96 1012.8
20260506235555 7 300 0.0 1.6 0.00 1.75 1.75 96 1012.5
20260506235050 7 138 0.0 0.0 0.00 1.75 1.75 96 1012.5
20260506234548 7 92 0.0 1.6 0.00 1.75 1.75 96 1012.3
20260506234045 7 353 0.0 0.0 0.00 1.75 1.75 96 1012.5
20260506233542 7 318 0.0 0.0 0.00 1.75 1.75 96 1012.5
20260506233038 7 354 0.0 0.0 0.00 1.75 1.75 96 1012.3
20260506232534 7 111 0.0 0.0 0.00 1.75 1.75 96 1012.0
20260506232025 7 109 0.0 0.0 0.00 1.75 1.75 96 1011.6
20260506231522 7 94 0.0 0.0 0.00 1.75 1.75 96 1011.5
20260506231015 7 184 0.0 0.0 0.00 1.75 1.75 96 1011.8
20260506230510 7 199 0.0 0.0 0.00 1.75 1.75 95 1011.8
20260506230009 7 197 0.0 0.0 0.00 1.75 1.75 95 1011.7
20260506225505 7 2 0.0 0.0 0.00 1.75 1.75 95 1011.8
20260506225001 7 322 0.0 0.0 0.00 1.75 1.75 95 1011.9
20260506224458 7 305 0.0 0.0 0.00 1.75 1.75 94 1012.0
20260506223954 7 313 0.0 0.0 0.00 1.75 1.75 94 1011.9
20260506223450 7 313 0.0 1.6 0.00 1.75 1.75 94 1012.1
20260506222948 7 309 0.0 3.2 0.00 1.75 1.75 94 1012.1
20260506222444 7 311 1.6 3.2 0.00 1.75 1.75 95 1012.2
20260506221941 7 301 1.6 1.6 0.00 1.75 1.75 95 1012.4
20260506221438 7 304 1.6 3.2 0.00 1.75 1.75 95 1012.3
20260506220936 7 306 1.6 1.6 0.00 1.75 1.75 96 1012.1
20260506220431 7 306 0.0 1.6 0.00 1.75 1.75 96 1012.0
20260506215928 7 306 0.0 1.6 0.00 1.75 1.75 96 1012.2
20260506215424 7 316 0.0 0.0 0.00 1.75 1.75 96 1012.0
20260506214920 7 332 0.0 0.0 0.00 1.75 1.75 96 1011.9
20260506214417 7 318 0.0 0.0 0.00 1.75 1.75 96 1011.7
20260506213915 7 319 0.0 1.6 0.00 1.75 1.75 97 1011.7
20260506213412 7 307 3.2 4.8 0.00 1.75 1.75 97 1011.8
20260506212910 7 297 0.0 1.6 0.00 1.75 1.75 97 1011.8
20260506212405 7 301 4.8 6.4 0.00 1.75 1.75 97 1011.6
20260506211900 7 319 3.2 4.8 0.00 1.75 1.75 98 1011.5
20260506211356 7 308 3.2 3.2 0.00 1.75 1.75 98 1011.7
20260506210853 7 300 3.2 3.2 0.00 1.75 1.75 98 1011.7
20260506210350 7 307 3.2 3.2 0.00 1.75 1.75 98 1011.7
20260506205848 7 315 3.2 4.8 0.00 1.75 1.75 98 1011.4
20260506205343 7 300 3.2 3.2 0.00 1.75 1.75 98 1011.4
20260506204840 7 312 3.2 4.8 0.00 1.75 1.75 98 1011.3
20260506204338 7 323 6.4 6.4 0.18 1.75 1.75 99 1011.2
20260506203835 7 313 1.6 3.2 0.18 1.75 1.75 99 1011.1
20260506203332 7 307 3.2 3.2 0.00 1.73 1.73 99 1011.2
20260506202829 7 299 1.6 3.2 0.00 1.73 1.73 99 1011.2
20260506202326 7 316 1.6 3.2 0.00 1.73 1.73 99 1011.0
20260506201817 7 302 3.2 4.8 0.00 1.73 1.73 99 1010.9
20260506201314 7 304 1.6 3.2 0.00 1.73 1.73 99 1010.9
20260506200811 7 307 3.2 3.2 0.00 1.73 1.73 99 1010.9
20260506200307 7 316 4.8 4.8 0.00 1.73 1.73 99 1011.0
20260506195803 7 304 1.6 3.2 0.00 1.73 1.73 99 1011.1
20260506195300 7 320 3.2 4.8 0.00 1.73 1.73 99 1011.2
20260506194757 7 320 3.2 4.8 0.00 1.73 1.73 99 1011.1
20260506194254 7 297 3.2 4.8 0.00 1.73 1.73 99 1011.0
20260506193752 7 311 3.2 4.8 0.00 1.73 1.73 99 1011.0
20260506193248 7 310 3.2 4.8 0.00 1.73 1.73 99 1011.0
20260506192744 7 306 3.2 4.8 0.00 1.73 1.73 99 1010.8
20260506192241 7 307 3.2 4.8 0.00 1.73 1.73 99 1010.8
20260506191738 7 314 3.2 4.8 0.00 1.73 1.73 99 1010.6
20260506191235 7 322 1.6 3.2 0.13 1.73 1.73 99 1010.7
20260506190732 7 307 1.6 3.2 0.13 1.73 1.73 99 1010.6
20260506190228 7 304 3.2 4.8 0.00 1.70 1.70 99 1010.6
20260506185726 7 300 4.8 6.4 0.00 1.70 1.70 99 1010.8
20260506185222 7 321 4.8 4.8 0.18 1.70 1.70 99 1010.7
20260506184719 7 323 1.6 9.7 0.18 1.70 1.70 99 1010.6
20260506184217 7 312 4.8 6.4 0.00 1.68 1.68 99 1010.4
20260506183713 7 324 3.2 4.8 0.00 1.68 1.68 99 1010.3
20260506183209 7 313 3.2 3.2 0.00 1.68 1.68 99 1010.2
20260506182706 7 305 1.6 3.2 0.00 1.68 1.68 99 1010.2
20260506182203 7 309 1.6 3.2 0.00 1.68 1.68 99 1010.1
20260506181701 7 317 3.2 4.8 0.00 1.68 1.68 99 1010.2
20260506181158 8 314 1.6 3.2 0.00 1.68 1.68 99 1010.1
20260506180655 8 316 1.6 3.2 0.00 1.68 1.68 99 1010.0
20260506180151 8 321 0.0 1.6 0.00 1.68 1.68 99 1009.9
20260506175647 7 315 1.6 1.6 0.00 1.68 1.68 99 1009.8
20260506175145 7 306 3.2 3.2 0.00 1.68 1.68 99 1009.8
20260506174638 7 300 1.6 3.2 0.00 1.68 1.68 99 1009.9
20260506174134 7 307 0.0 0.0 0.00 1.68 1.68 99 1010.0
20260506173632 7 311 1.6 1.6 0.13 1.68 1.68 99 1009.8
20260506173128 7 309 0.0 1.6 0.13 1.68 1.68 99 1009.8
20260506172626 7 321 0.0 0.0 0.00 1.65 1.65 99 1009.7
20260506172121 7 306 1.6 3.2 0.00 1.65 1.65 99 1009.8
20260506171620 7 310 0.0 0.0 0.00 1.65 1.65 99 1009.8
20260506171117 7 318 0.0 0.0 0.00 1.65 1.65 99 1009.6
20260506170614 7 304 0.0 0.0 0.00 1.65 1.65 99 1009.7
20260506170111 7 319 0.0 0.0 0.00 1.65 1.65 99 1009.7
20260506165609 7 314 0.0 0.0 0.00 1.65 1.65 99 1009.8
20260506165059 7 325 0.0 0.0 0.18 1.65 1.65 99 1009.8
20260506164557 7 316 1.6 1.6 0.18 1.65 1.65 99 1009.8
20260506164054 7 328 0.0 1.6 0.18 1.63 1.63 99 1009.8
20260506163549 7 319 1.6 3.2 0.18 1.63 1.63 99 1010.0
20260506163045 7 319 3.2 3.2 0.00 1.60 1.60 99 1009.8
20260506162541 7 329 0.0 0.0 0.13 1.60 1.60 99 1009.7
20260506162033 7 322 0.0 0.0 0.18 1.57 1.57 99 1009.8
20260506161530 7 317 0.0 0.0 0.30 1.57 1.57 99 1009.9
20260506161027 7 323 0.0 0.0 0.13 1.55 1.55 99 1010.0
20260506160526 7 316 0.0 0.0 0.18 1.52 1.52 99 1010.0
20260506160022 7 320 0.0 0.0 0.18 1.52 1.52 99 1010.1
20260506155520 7 335 0.0 0.0 0.00 1.50 1.50 99 1010.0
20260506153652 6 327 0.0 0.0 0.18 1.47 1.47 99 1010.3
20260506153149 6 310 0.0 0.0 0.18 1.47 1.47 99 1010.3
20260506152646 7 330 0.0 0.0 0.00 1.45 1.45 99 1010.0
20260506152143 6 331 0.0 0.0 0.13 1.45 1.45 99 1010.1
20260506151642 7 311 0.0 0.0 0.13 1.45 1.45 99 1010.2
20260506151138 7 289 0.0 0.0 0.00 1.42 1.42 99 1009.9
20260506150635 7 344 0.0 0.0 0.00 1.42 1.42 99 1009.8
20260506150132 7 319 0.0 0.0 0.00 1.42 1.42 99 1009.8
20260506145629 7 320 0.0 0.0 0.18 1.42 1.42 99 1009.5
20260506145126 7 323 0.0 0.0 0.18 1.42 1.42 99 1009.5
20260506144624 6 311 0.0 1.6 0.00 1.40 1.40 99 1009.6
20260506144120 7 5 0.0 0.0 0.13 1.40 1.40 99 1009.7
20260506143618 7 344 0.0 0.0 0.13 1.40 1.40 99 1009.8
20260506143116 7 312 0.0 1.6 0.00 1.37 1.37 99 1009.8
20260506142614 7 324 0.0 1.6 0.18 1.37 1.37 99 1009.8
20260506142112 6 311 0.0 0.0 0.18 1.37 1.37 99 1009.8
20260506141609 6 307 0.0 1.6 0.13 1.35 1.35 99 1009.9
20260506141107 6 329 0.0 1.6 0.13 1.35 1.35 99 1009.9
20260506140604 7 291 1.6 1.6 0.18 1.32 1.32 99 1009.9
20260506135558 6 330 0.0 1.6 0.18 1.30 1.30 99 1009.9
20260506135054 6 330 0.0 1.6 0.18 1.30 1.30 99 1009.9
20260506134551 6 353 0.0 1.6 0.30 1.27 1.27 99 1010.0
20260506134047 6 340 0.0 1.6 0.30 1.27 1.27 99 1010.0
20260506133544 6 350 0.0 3.2 0.13 1.22 1.22 99 1010.0
20260506133041 6 316 1.6 1.6 0.30 1.19 1.19 99 1010.0
20260506132539 6 314 0.0 0.0 0.30 1.17 1.17 99 1010.0
20260506132036 6 336 1.6 1.6 0.48 1.14 1.14 99 1010.1
20260506131533 6 295 0.0 1.6 0.43 1.12 1.12 99 1010.1
20260506131029 7 350 0.0 0.0 0.30 1.07 1.07 99 1010.0
20260506130526 7 323 0.0 3.2 0.48 1.04 1.04 99 1010.0
20260506130024 7 331 1.6 3.2 0.36 0.99 0.99 99 1010.2
20260506125522 7 321 1.6 1.6 0.30 0.97 0.97 99 1010.0
20260506125019 7 329 0.0 0.0 0.30 0.94 0.94 99 1009.9
20260506124517 7 347 0.0 0.0 0.30 0.91 0.91 99 1009.9
20260506124015 7 309 0.0 0.0 0.30 0.89 0.89 99 1009.8
20260506123512 7 328 0.0 0.0 0.30 0.86 0.86 99 1009.6
20260506123010 7 323 0.0 0.0 0.30 0.84 0.84 99 1009.7
20260506122506 7 343 0.0 0.0 0.30 0.81 0.81 99 1009.8
20260506122005 7 317 0.0 0.0 0.30 0.79 0.79 99 1009.7
20260506121502 7 343 0.0 0.0 0.30 0.76 0.76 99 1009.7
20260506120958 7 332 0.0 1.6 0.13 0.74 0.74 99 1009.9
20260506120456 7 328 0.0 1.6 0.00 0.71 0.71 99 1009.8
20260506115953 7 336 0.0 1.6 0.18 0.71 0.71 99 1009.8
20260506115451 7 310 0.0 3.2 0.18 0.71 0.71 99 1009.9
20260506114949 7 301 1.6 3.2 0.00 0.69 0.69 99 1009.7
20260506114446 7 321 1.6 3.2 0.13 0.69 0.69 99 1009.9
20260506113945 7 322 1.6 3.2 0.13 0.69 0.69 99 1009.9
20260506113442 7 318 0.0 1.6 0.18 0.66 0.66 99 1009.9
20260506112938 7 299 1.6 3.2 0.36 0.66 0.66 99 1009.9
20260506112436 7 309 0.0 0.0 0.30 0.64 0.64 99 1010.1
20260506111933 7 328 1.6 3.2 0.30 0.61 0.61 99 1010.1
20260506111431 7 312 0.0 1.6 0.30 0.58 0.58 99 1010.3
20260506110928 7 330 0.0 0.0 0.30 0.56 0.56 99 1010.1
20260506110426 7 347 0.0 0.0 0.30 0.53 0.53 99 1010.0
20260506105922 7 354 0.0 0.0 0.13 0.51 0.51 99 1010.2
20260506105418 7 34 0.0 0.0 0.30 0.48 0.48 99 1010.2
20260506104916 7 85 0.0 0.0 0.30 0.46 0.46 99 1010.3
20260506104414 7 216 0.0 0.0 0.18 0.43 0.43 99 1010.3
20260506103912 7 287 0.0 0.0 0.13 0.41 0.41 99 1009.9
20260506103409 7 323 0.0 0.0 0.13 0.41 0.41 99 1009.9
20260506102906 7 357 0.0 0.0 0.18 0.38 0.38 99 1009.7
20260506102404 7 354 0.0 0.0 0.18 0.38 0.38 99 1010.0
20260506101901 7 297 0.0 0.0 0.00 0.36 0.36 99 1010.0
20260506101357 7 304 0.0 0.0 0.18 0.36 0.36 99 1009.9
20260506100854 7 229 0.0 0.0 0.18 0.36 0.36 99 1010.1
20260506100353 7 325 0.0 0.0 0.13 0.33 0.33 99 1010.2
20260506095850 7 328 0.0 0.0 0.30 0.33 0.33 99 1010.1
20260506095348 7 97 0.0 0.0 0.18 0.30 0.30 99 1010.3
20260506094844 7 322 0.0 0.0 0.13 0.28 0.28 99 1010.4
20260506094343 7 43 0.0 0.0 0.30 0.28 0.28 99 1010.5
20260506093841 7 308 0.0 0.0 0.18 0.25 0.25 99 1010.5
20260506093338 7 31 0.0 0.0 0.13 0.23 0.23 99 1010.7
20260506092835 7 299 1.6 3.2 0.13 0.23 0.23 99 1010.8
20260506092333 7 346 1.6 3.2 0.00 0.20 0.20 99 1010.4
20260506091830 7 247 1.6 3.2 0.18 0.20 0.20 99 1011.1
20260506091328 7 26 1.6 3.2 0.18 0.20 0.20 99 1011.1
20260506090825 7 328 0.0 1.6 0.00 0.18 0.18 99 1010.5
20260506090322 7 14 0.0 3.2 0.00 0.18 0.18 99 1010.5
20260506085819 7 6 0.0 1.6 0.13 0.18 0.18 99 1010.4
20260506085315 7 305 1.6 3.2 0.13 0.18 0.18 99 1011.0
20260506084812 7 6 3.2 3.2 0.18 0.15 0.15 99 1010.6
20260506084308 7 327 3.2 3.2 0.18 0.15 0.15 99 1010.3
20260506083805 8 346 3.2 3.2 0.13 0.13 0.13 99 1010.8
20260506083303 8 317 3.2 4.8 0.13 0.13 0.13 99 1010.7
20260506082800 8 9 0.0 0.0 0.00 0.10 0.10 99 1010.6
20260506082256 8 354 0.0 3.2 0.18 0.10 0.10 99 1010.6
20260506081753 8 335 0.0 0.0 0.18 0.10 0.10 99 1010.3
20260506081251 8 287 0.0 1.6 0.00 0.08 0.08 99 1010.4
20260506080749 8 311 0.0 0.0 0.13 0.08 0.08 99 1010.6
20260506080245 8 326 0.0 0.0 0.13 0.08 0.08 99 1010.7
20260506073229 8 351 0.0 0.0 0.00 0.05 0.05 99 1010.2
20260506072725 8 338 0.0 0.0 0.00 0.05 0.05 99 1010.3
20260506072223 8 36 0.0 0.0 0.00 0.05 0.05 99 1010.0
20260506071721 8 33 0.0 0.0 0.00 0.05 0.05 99 1010.2
20260506071218 8 345 0.0 0.0 0.00 0.05 0.05 99 1010.6
20260506070715 8 313 0.0 0.0 0.00 0.05 0.05 99 1010.5
20260506070212 8 44 0.0 0.0 0.00 0.05 0.05 99 1010.3
20260506062149 8 76 0.0 0.0 0.18 0.03 0.03 98 1011.1
20260506061645 8 92 0.0 1.6 0.00 0.00 0.00 98 1011.1
20260506061143 8 318 0.0 1.6 0.00 0.00 0.00 98 1011.5
20260506060641 8 44 0.0 0.0 0.00 0.00 0.00 98 1010.8
20260506060138 8 81 0.0 1.6 0.00 0.00 0.00 98 1010.8
20260506051110 9 312 1.6 1.6 0.00 0.00 0.00 98 1012.3
20260506050608 9 279 0.0 0.0 0.00 0.00 0.00 98 1012.0
20260506050105 9 109 0.0 1.6 0.00 0.00 0.00 98 1011.7
20260506045058 8 333 0.0 0.0 0.00 0.00 0.00 98 1011.8
20260506044556 9 320 0.0 0.0 0.00 0.00 0.00 98 1011.7
20260506044052 9 337 0.0 0.0 0.00 0.00 0.00 98 1012.0
20260506043549 9 329 0.0 0.0 0.00 0.00 0.00 98 1011.8
20260506043048 9 9 0.0 0.0 0.00 0.00 0.00 98 1012.1
20260506042547 9 340 0.0 0.0 0.00 0.00 0.00 98 1012.1
20260506042044 9 6 0.0 0.0 0.00 0.00 0.00 98 1012.1
20260506041543 9 148 0.0 0.0 0.00 0.00 0.00 98 1012.1
20260506041039 9 15 0.0 0.0 0.00 0.00 0.00 97 1011.7
20260506040537 9 19 0.0 0.0 0.00 0.00 0.00 97 1012.2
20260506040032 8 11 0.0 0.0 0.00 0.00 0.00 97 1012.1
20260506035530 9 8 0.0 0.0 0.13 0.61 0.61 97 1012.0
20260506035026 9 27 0.0 0.0 0.13 0.61 0.61 97 1011.9
20260506034524 9 322 0.0 0.0 0.00 0.58 0.58 97 1012.5
20260506034021 9 279 0.0 0.0 0.00 0.58 0.58 97 1012.3
20260506033518 8 58 0.0 0.0 0.00 0.58 0.58 97 1012.5
20260506033015 9 79 0.0 0.0 0.18 0.58 0.58 97 1012.5
20260506032513 9 79 0.0 0.0 0.30 0.58 0.58 97 1012.5
20260506032009 9 58 0.0 0.0 0.13 0.56 0.56 97 1012.2
20260506031507 9 97 0.0 0.0 0.00 0.53 0.53 97 1012.9
20260506031003 9 88 0.0 0.0 0.18 0.53 0.53 97 1012.6
20260506030502 9 84 0.0 0.0 0.18 0.53 0.53 96 1012.4
20260506025958 9 319 0.0 0.0 0.13 0.51 0.51 96 1012.5
20260506025455 9 173 0.0 0.0 0.30 0.51 0.51 96 1012.4
20260506024952 9 2 0.0 0.0 0.18 0.48 0.48 96 1012.3
20260506024448 9 343 0.0 0.0 0.00 0.46 0.46 96 1012.4
20260506023944 9 322 0.0 0.0 0.13 0.46 0.46 96 1012.5
20260506023441 9 2 0.0 0.0 0.13 0.46 0.46 96 1012.2
20260506022938 9 247 0.0 0.0 0.18 0.43 0.43 95 1012.8
20260506022436 9 291 0.0 0.0 0.30 0.43 0.43 95 1012.7
20260506021934 9 314 0.0 1.6 0.30 0.41 0.41 95 1012.5
20260506021430 9 309 1.6 3.2 0.30 0.38 0.38 95 1012.7
20260506020927 9 323 0.0 0.0 0.13 0.36 0.36 95 1012.7
20260506020425 9 191 0.0 0.0 0.00 0.33 0.33 95 1012.5
20260506015922 9 66 1.6 3.2 0.00 0.33 0.33 94 1011.4
20260506015420 9 281 0.0 1.6 0.00 0.33 0.33 94 1012.0
20260506014916 9 22 0.0 1.6 0.00 0.33 0.33 93 1011.8
20260506014414 9 3 0.0 1.6 0.00 0.33 0.33 93 1011.8
20260506013910 9 357 1.6 3.2 0.00 0.33 0.33 92 1012.3
20260506013408 9 328 1.6 1.6 0.00 0.33 0.33 92 1012.3
20260506012904 9 327 1.6 1.6 0.18 0.33 0.33 91 1012.3
20260506012401 9 310 3.2 4.8 0.18 0.33 0.33 90 1012.5
20260506011858 10 321 1.6 3.2 0.30 0.30 0.30 89 1012.4
20260506011355 10 310 3.2 4.8 0.13 0.28 0.28 87 1012.2
20260506010852 10 314 3.2 4.8 0.00 0.25 0.25 84 1012.6
20260506010350 10 311 6.4 6.4 0.00 0.25 0.25 83 1012.0
20260506005847 11 305 3.2 4.8 0.00 0.25 0.25 80 1011.8
20260506005344 11 319 6.4 11.3 0.00 0.25 0.25 76 1011.8
20260506004839 12 336 4.8 9.7 0.00 0.25 0.25 72 1011.8
20260506004337 12 308 6.4 9.7 0.00 0.25 0.25 70 1011.6
20260506003833 13 320 3.2 4.8 0.00 0.25 0.25 70 1011.3
20260506003329 13 309 4.8 4.8 0.00 0.25 0.25 68 1011.5
20260506002826 13 306 3.2 4.8 0.00 0.25 0.25 67 1011.2
20260506002323 13 313 3.2 3.2 0.00 0.25 0.25 68 1011.0
20260506001818 13 307 3.2 3.2 0.00 0.25 0.25 69 1010.9
20260506001316 13 294 1.6 4.8 0.00 0.25 0.25 68 1011.1